This is the latest recevied weather packets stored in our database for station/object K9VSK-9. If no packets are shown the sender has not sent any weather packets the latest 10 day(s).
| Time | Temp. | Humidity | Pressure | Rain* | Wind** | Luminosity | Snow |
|---|---|---|---|---|---|---|---|
| 1787846682 | 25.56° C | 76% | 1017.5 hPa | 0 mm | - | - | - |
| 1787846381 | 25° C | 79% | 1017.5 hPa | 0 mm | - | - | - |
| 1787846081 | 25° C | 77% | 1017.6 hPa | 0 mm | - | - | - |
| 1787845781 | 25° C | 78% | 1017.6 hPa | 0 mm | - | - | - |
| 1787845480 | 24.44° C | 79% | 1017.5 hPa | 0 mm | - | - | - |
| 1787845180 | 24.44° C | 78% | 1017.5 hPa | 0 mm | - | - | - |
| 1787844880 | 24.44° C | 79% | 1017.5 hPa | 0 mm | - | - | - |
| 1787844580 | 24.44° C | 82% | 1017.5 hPa | 0 mm | - | - | - |
| 1787844279 | 23.89° C | 79% | 1017.5 hPa | 0 mm | - | - | - |
| 1787843980 | 23.89° C | 78% | 1017.5 hPa | 0 mm | - | - | - |
| 1787843679 | 24.44° C | 79% | 1017.5 hPa | 0 mm | - | - | - |
| 1787843378 | 24.44° C | 80% | 1017.4 hPa | 0 mm | - | - | - |
| 1787843078 | 23.89° C | 82% | 1017.3 hPa | 0 mm | - | - | - |
| 1787842478 | 23.33° C | 83% | 1017.1 hPa | 0 mm | - | - | - |
| 1787842177 | 23.33° C | 84% | 1017 hPa | 0 mm | - | - | - |
| 1787841877 | 22.78° C | 86% | 1016.9 hPa | 0 mm | - | - | - |
| 1787841276 | 22.22° C | 85% | 1016.7 hPa | 0 mm | - | - | - |
| 1787840976 | 22.22° C | 86% | 1016.6 hPa | 0 mm | - | - | - |
| 1787840676 | 22.22° C | 86% | 1016.7 hPa | 0 mm | - | - | - |
| 1787840075 | 21.67° C | 87% | 1016.7 hPa | 0 mm | - | - | - |
| 1787839174 | 21.11° C | 88% | 1016.7 hPa | 0 mm | - | - | - |
| 1787838873 | 21.11° C | 90% | 1016.7 hPa | 0 mm | - | - | - |
| 1787837974 | 20° C | 91% | 1016.7 hPa | 0 mm | - | - | - |
| 1787837072 | 19.44° C | 92% | 1016.5 hPa | 0 mm | - | - | - |
| 1787836771 | 19.44° C | 92% | 1016.4 hPa | 0 mm | - | - | - |
* Rain latest hour (hover to see other rain measurements)
** Current wind speed in m/s (hover to see current wind gust speed)